Regional Weather Roundup
Issued by NWS

Home | Current Version | Previous Version | Graphics & Text | Print | Product List | Glossary On
Versions: 1 2 3 4 5 6 7 8 9 10 11 12 13 14 15 16 17 18 19 20 21 22 23 24 25 26 27 28 29 30 31 32 33 34 35 36 37 38 39 40 41 42 43 44 45 46 47 48 49 50
139
ASUS44 KMEG 120210
RWRTN
TENNESSEE HOURLY STATE WEATHER ROUNDUP
NATIONAL WEATHER SERVICE MEMPHIS TN
800 PM CST THU FEB 11 2016

TNZ002-004-019-021-049-052-054-088>092-120300-
WEST TENNESSEE

CITY           SKY/WX    TMP DP  RH WIND       PRES   REMARKS
MEMPHIS INTL   PTCLDY    43  24  47 NE9       30.23R
NWS MEMPHIS      N/A     41 N/A N/A MISG        N/A
JACKSON        PTCLDY    39  23  52 NE9       30.25R WCI  33
DYERSBURG      MOCLDY    37  25  60 NE9       30.28F WCI  31
UNION CITY       N/A     34  23  64 NE6       30.25F WCI  29
PARIS          CLEAR     32  21  64 NE8       30.27F WCI  25
LEXINGTON      CLEAR     37  21  52 NE6       30.24R WCI  33
$$

TNZ008-025-027-028-033-062-065-066-120300-
NORTH MIDDLE TENNESSEE

CITY           SKY/WX    TMP DP  RH WIND       PRES   REMARKS
NASHVILLE      PTCLDY    33  21  61 N6        30.28R WCI  28
CLARKSVILLE    CLOUDY    32  18  56 NE7       30.30S WCI  26
SMYRNA         PTCLDY    33  23  67 N7        30.29R WCI  27
COOKEVILLE     CLEAR     28  21  74 CALM      30.24R
CROSSVILLE     CLOUDY    30  20  66 NE3       30.21R
$$

TNZ061-075-076-078-094-096-097-120300-
SOUTH MIDDLE TENNESSEE

CITY           SKY/WX    TMP DP  RH WIND       PRES   REMARKS
FAYETTEVILLE   CLEAR     36  25  64 NE6       30.22S WCI  31
TULLAHOMA      CLEAR     34  23  64 CALM      30.23R
WINCHESTER     CLEAR     34  25  69 CALM      30.23S
MCMINNVILLE    CLEAR     32  25  74 CALM      30.24R
COLUMBIA       CLEAR     36  27  69 NE3       30.23R
SHELBYVILLE    CLEAR     36  25  64 N7        30.26R WCI  30
$$

TNZ017-018-042-046-047-120300-
NORTHEAST TENNESSEE

CITY           SKY/WX    TMP DP  RH WIND       PRES   REMARKS
TRI CITIES     PTCLDY    29  15  56 NW3       30.22S
$$

TNZ012-013-036-069-073-074-120300-
CENTRAL EAST TENNESSEE

CITY           SKY/WX    TMP DP  RH WIND       PRES   REMARKS
KNOXVILLE      PTCLDY    33  20  58 NE5       30.23S WCI  29
OAK RIDGE      PTCLDY    33  20  58 NE3       30.25S
GATLINBURG     CLEAR     27  18  69 CALM      30.24R
MORRISTOWN     PTCLDY    30  18  59 CALM      30.22R
$$

TNZ083-085-099-120300-
SOUTHEAST TENNESSEE

CITY           SKY/WX    TMP DP  RH WIND       PRES   REMARKS
CHATTANOOGA    PTCLDY    35  24  64 CALM      30.24R
$$

SKY/WX REPORTED AS FAIR MEANS FEW OR NO CLOUDS BELOW
12 THOUSAND FEET.





USA.gov is the U.S. government's official web portal to all federal, state and local government web resources and services.